Location: New Mesquite
(33.1168°N, 96.4336°W)
Time: 15:10:27
(UTC+00:00)

Meteor 1-27 Rocket - Pass Details

Date: 09 July 2022
Orbit: 829 x 911 km, 81.3° (Epoch: 18 August)

Event Time Altitude Azimuth Distance (km) Brightness Sun altitude
Rises 08:41:00 0° 347° (NNW) 3,399 7.4 -26.5°
Reaches altitude 10° 08:43:27 10° 343° (NNW) 2,453 6.6 -26.2°
Enters shadow 08:48:42 58° 274° (W) 965 3.7 -25.6°
